EHI
3 3 3 3 1 0 0 1 2 2 1 0 0 0 0 0 0 0 0 0 0 0 0 0 0 0 0 0 0 0 0 0 0 0 0 0 0 0 0 0 0 0 0
3 3 3 3 2 1 0 0 1 1 0 0 0 0 0 0 0 0 0 0 0 0 0 0 0 0 0 0 0 0 0 0 0 0 0 0 0 0 0 0 0 0 0
3 3 3 3 3 2 1 0 0 0 0 0 0 0 0 0 0 0 0 0 0 0 0 0 0 0 0 0 0 0 0 0 0 0 0 0 0 0 0 0 0 0 0
3 3 3 3 3 2 1 0 0 0 0 0 0 0 0 0 0 0 0 0 0 0 0 0 0 0 0 0 0 0 0 0 0 0 0 0 0 0 0 0 0 0 0
3 3 3 3 3 3 1 0 0 0 0 0 0 0 0 0 0 0 0 0 0 0 0 0 0 0 0 0 0 0 0 0 0 0 0 0 0 0 0 0 0 0 0
3 3 3 3 3 3 2 1 0 0 0 0 0 0 0 0 0 0 0 0 0 0 0 0 0 0 0 0 0 0 0 0 0 0 0 0 0 0 0 0 0 0 0
3 3 3 3 3 3 2 1 0 0 0 0 0 0 0 0 0 0 0 0 0 0 0 0 0 0 0 0 0 0 0 0 0 0 0 0 0 0 0 0 0 0 0
3 3 3 3 3 3 2 1 0 0 0 0 0 0 0 0 0 0 0 0 0 0 0 0 0 0 0 0 0 0 0 0 0 0 0 0 0 0 0 0 0 0 0
3 3 3 3 2 2 1 0 0 0 0 0 0 0 0 0 0 0 0 0 0 0 0 0 0 0 0 0 0 0 0 0 0 0 0 0 0 0 0 0 0 0 0
2 3 3 1 1 1 0 0 0 0 0 0 0 0 0 0 0 0 0 0 0 0 0 0 0 0 0 0 0 0 0 0 0 0 0 0 0 0 0 0 0 0 0
1 2 2 1 0 0 0 0 0 0 0 0 0 0 0 0 0 0 0 0 0 0 0 0 0 0 0 0 0 0 0 0 0 0 0 0 0 0 0 0 0 0 0
0 1 1 0 0 0 0 0 0 0 0 0 0 0 0 0 0 0 0 0 0 0 0 0 0 0 0 0 0 0 0 0 0 0 0 0 0 0 0 0 0 0 0
0 0 0 0 0 0 0 0 0 0 0 0 0 0 0 0 0 0 0 0 0 0 0 0 0 0 0 0 0 0 0 0 0 0 0 0 0 0 0 0 0 0 0
0 0 0 0 0 0 0 0 0 0 0 0 0 0 0 0 0 0 0 0 0 0 0 0 0 0 0 0 0 0 0 0 0 0 0 0 0 0 0 0 0 0 0
0 0 0 0 0 0 0 0 0 0 0 0 0 0 0 0 0 0 0 0 0 0 0 0 0 0 0 0 0 0 0 0 0 0 0 0 0 0 0 0 0 0 0
0 0 0 0 0 0 0 0 0 0 0 0 0 0 0 0 0 0 0 0 0 0 0 0 0 0 0 0 0 0 0 0 0 0 0 0 0 0 0 0 0 0 0
0 0 0 0 0 0 0 0 0 0 0 0 0 0 0 0 0 0 0 0 0 0 0 0 0 0 0 0 0 0 0 0 0 0 0 0 0 0 0 0 0 0 0
0 0 0 0 0 0 0 0 0 0 0 0 0 0 0 0 0 0 0 0 0 0 0 0 0 0 0 0 0 0 0 0 0 0 0 0 0 0 0 0 0 0 0
0 0 0 0 0 0 0 0 0 0 0 0 0 0 0 0 0 0 0 0 0 0 0 0 0 0 0 0 0 0 0 0 0 0 0 0 0 0 0 0 0 0 0
0 0 0 0 0 0 0 0 0 0 0 0 0 0 0 0 0 0 0 0 0 0 0 0 0 0 0 0 0 0 0 0 0 0 0 0 0 0 0 0 0 0 0
0 0 0 0 0 0 0 0 0 0 0 0 0 0 0 0 0 0 0 0 0 0 0 0 0 0 0 0 0 0 0 0 0 0 0 0 0 0 0 0 0 0 0
0 0 0 0 0 0 0 0 0 0 0 0 0 0 0 0 0 0 0 0 0 0 0 0 0 0 0 0 0 0 0 0 0 0 0 0 0 0 0 0 0 0 0
0 0 0 0 0 0 0 0 0 0 0 0 0 0 0 0 0 0 0 0 0 0 0 0 0 0 0 0 0 0 0 0 0 0 0 0 0 0 0 0 0 0 0
0 0 0 0 0 0 0 0 0 0 0 0 0 0 0 0 0 0 0 0 0 0 0 0 0 0 0 0 0 0 0 0 0 0 0 0 0 0 0 0 0 0 0
0 0 0 0 0 0 0 0 0 0 0 0 0 0 0 0 0 0 0 0 0 0 0 0 0 0 0 0 0 0 0 0 0 0 0 0 0 0 0 0 0 0 0
0 0 0 0 0 0 0 0 0 0 0 0 0 0 0 0 0 0 0 0 0 0 0 0 0 0 0 0 0 0 0 0 0 0 0 0 0 0 0 0 0 0 0
Wind_Speed
2 2 2 1 1 1 1 1 1 1 1 1 1 1 1 1 1 1 1 1 1 2 2 1 2 2 1 1 1 1 1 2 2 2 2 2 2 2 2 2 2 2 3
2 2 2 2 2 1 1 1 1 1 1 1 1 1 1 2 1 1 2 2 1 2 2 2 3 2 2 2 1 1 1 2 2 2 2 1 2 3 2 2 2 2 3
3 3 2 2 1 1 0 1 1 1 2 2 2 2 2 1 1 1 1 1 1 2 2 2 2 2 2 2 2 1 1 1 1 2 2 1 1 1 1 1 2 1 3
3 3 2 1 1 1 0 1 1 1 1 2 2 1 1 1 1 1 1 2 2 2 2 2 2 2 3 3 2 2 1 1 1 1 1 1 1 1 1 1 1 1 2
3 2 2 2 1 1 0 1 1 1 1 1 2 2 2 2 1 2 1 1 2 3 3 3 3 4 4 3 2 2 1 1 1 1 1 1 1 1 1 1 2 2 3
3 3 2 2 1 1 0 0 1 2 1 1 2 2 2 2 2 3 2 2 2 3 3 4 4 4 4 5 5 4 5 4 3 2 2 2 3 3 2 2 1 1 3
3 3 2 2 2 1 1 0 1 1 1 2 2 2 2 3 3 4 3 1 2 2 3 3 4 4 4 3 3 4 3 5 7 5 4 4 4 4 3 3 3 3 4
3 3 3 2 2 1 0 0 1 1 1 1 2 2 1 3 4 4 4 2 2 3 3 3 3 4 4 2 2 3 3 3 4 4 5 5 5 4 4 4 4 3 3
3 3 3 3 2 2 1 1 1 1 1 1 2 1 2 3 4 4 4 2 2 4 3 3 3 3 4 3 2 2 4 4 4 4 6 7 7 7 5 2 2 1 2
3 3 3 3 3 3 2 2 1 1 1 1 2 2 2 3 4 5 3 1 2 3 4 4 4 4 4 3 1 1 3 5 4 4 3 4 4 5 7 6 5 3 3
3 3 2 2 3 3 2 1 1 0 1 1 2 3 3 3 4 5 4 1 2 3 3 4 4 6 6 5 3 3 5 5 3 3 3 4 3 3 3 4 5 5 4
2 2 2 2 2 2 1 1 1 0 1 2 2 3 3 3 4 5 5 4 3 2 3 4 5 8 8 7 5 6 7 5 2 2 2 3 3 4 4 4 5 6 6
2 2 2 2 1 1 2 1 1 1 1 2 2 3 4 3 4 6 6 5 4 2 4 7 8 10 9 6 7 9 6 2 2 2 3 4 4 4 3 3 4 4 5
2 2 2 1 1 1 1 2 2 2 2 2 2 3 3 3 3 3 3 3 3 3 3 6 8 8 6 6 6 5 3 3 3 4 4 4 3 3 3 3 2 2 2
3 2 1 1 1 1 2 2 3 4 4 4 4 3 3 4 5 5 3 2 2 2 3 3 3 4 4 4 4 4 3 2 3 3 3 4 4 3 3 3 2 2 2
3 2 2 2 2 1 1 3 5 5 7 7 8 6 5 7 8 7 6 6 5 4 2 2 4 4 4 5 5 5 4 4 3 3 3 3 4 4 3 3 2 2 3
4 3 2 2 2 2 2 2 4 6 7 7 8 8 8 8 8 8 7 6 6 3 2 3 4 5 5 5 4 4 4 4 3 2 3 3 3 3 3 3 2 2 3
4 4 3 3 3 3 3 3 3 3 4 5 5 7 8 8 8 8 6 3 3 1 3 4 5 5 5 5 4 4 4 4 3 3 3 3 3 3 3 3 3 4 4
4 3 3 2 3 3 3 3 3 3 3 4 4 4 5 5 6 6 2 2 3 4 4 4 5 5 4 4 4 4 4 4 4 3 3 3 3 3 3 4 4 5 4
3 5 4 2 3 3 3 3 3 3 3 3 3 4 2 1 2 3 2 2 3 4 5 5 5 4 4 4 4 4 4 3 3 3 3 3 3 3 3 4 4 3 3
3 3 4 3 3 3 3 3 3 3 3 3 3 3 3 2 2 3 3 3 3 4 4 4 4 3 3 3 2 3 3 3 3 3 4 4 4 3 3 3 4 4 3
2 2 2 2 3 3 3 3 3 3 3 4 3 3 3 1 2 2 3 3 3 3 2 2 2 2 2 2 2 2 3 3 4 4 4 4 4 4 3 3 4 4 4
3 2 2 2 3 4 4 3 2 3 3 3 2 2 1 1 1 2 3 3 3 2 2 1 1 2 2 2 1 1 2 3 4 4 4 4 4 4 4 4 5 5 5
3 3 3 3 3 3 3 3 2 2 2 2 1 1 1 1 1 2 2 2 2 2 2 1 2 2 3 3 2 2 3 4 4 4 5 5 5 5 4 4 5 5 5
3 3 3 3 3 3 3 3 2 2 2 1 1 1 1 1 1 1 2 2 2 3 3 3 2 3 4 5 4 4 5 5 5 5 4 4 5 6 5 6 5 6 5
3 3 3 2 2 2 2 2 2 1 1 1 1 1 1 0 1 1 1 2 2 2 2 2 2 3 4 3 5 6 6 6 7 6 5 4 5 5 6 5 6 6 6
Wind_Direction
127 122 113 99 73 65 54 13 333 326 339 348 343 345 345 342 344 340 320 346 352 336 332 335 316 310 311 298 280 227 212 190 217 254 237 224 208 217 229 213 213 214 223
144 124 123 113 94 76 22 337 340 343 349 353 351 349 345 360 5 6 358 6 0 346 332 333 314 323 330 310 288 255 234 207 193 234 246 222 224 211 206 215 220 218 221
136 125 124 123 122 133 265 328 345 349 347 353 7 356 352 8 18 11 19 358 332 315 307 303 302 315 314 304 287 268 249 225 189 195 232 230 240 206 197 237 224 233 234
138 134 146 168 169 194 267 357 352 346 357 351 359 357 7 19 18 2 6 355 337 320 314 305 298 285 278 286 288 273 251 213 192 190 218 227 232 220 172 213 267 251 247
146 153 182 190 176 175 350 343 338 337 349 355 21 17 20 26 11 3 345 345 336 323 322 316 302 293 289 275 266 251 222 216 202 190 207 227 232 204 209 205 239 272 263
164 183 188 179 178 197 237 309 337 339 347 12 16 17 11 1 359 354 346 334 329 327 320 315 310 306 308 304 282 252 218 206 204 199 216 216 230 222 205 206 201 238 272
178 180 176 178 183 216 235 43 324 329 359 2 347 357 342 325 337 350 351 329 314 312 307 306 313 318 315 308 311 306 269 236 216 198 210 224 217 211 198 213 214 214 234
177 179 180 174 183 183 110 306 294 302 327 317 307 320 320 317 336 348 349 344 323 316 307 296 300 309 312 311 322 329 313 286 247 215 217 229 228 222 205 209 214 235 267
182 189 191 177 174 176 207 251 254 258 305 301 293 302 309 306 321 333 342 331 326 322 319 321 314 304 308 335 2 336 327 314 302 256 238 243 241 236 213 182 197 198 265
202 202 194 178 174 195 220 242 247 231 256 288 301 292 275 284 302 318 331 329 323 319 322 321 318 312 309 315 314 311 307 301 316 327 312 290 263 246 223 201 198 199 217
200 176 178 173 187 202 218 230 239 273 321 320 303 297 287 274 286 294 304 288 278 300 306 309 311 323 318 306 281 253 258 272 289 292 297 297 291 274 252 221 205 199 204
162 159 180 195 210 188 191 253 261 244 307 306 306 306 297 283 273 278 280 272 259 257 280 292 299 311 309 302 288 273 275 280 275 279 283 281 280 275 268 254 234 223 221
159 179 197 207 225 204 198 228 263 262 252 274 272 280 288 290 288 284 284 286 286 257 273 288 297 302 305 300 288 288 290 270 257 260 264 267 259 258 268 274 267 241 240
170 194 196 190 267 286 255 221 217 235 246 259 258 265 279 289 288 291 296 301 311 306 301 302 304 302 297 282 289 293 270 244 233 247 257 262 268 273 269 257 261 267 267
177 185 197 206 226 272 287 263 242 239 224 223 239 236 240 268 267 255 252 271 280 289 312 318 323 325 323 314 306 297 285 273 254 248 252 267 273 271 268 256 240 234 233
176 195 206 218 240 247 278 308 297 269 266 252 239 232 240 244 258 272 272 272 280 289 301 298 301 300 294 293 295 297 292 279 267 257 253 257 263 264 270 272 250 236 245
186 202 214 224 237 249 252 257 293 307 298 278 262 250 241 253 265 271 279 289 287 262 250 275 282 285 286 285 283 283 285 284 276 265 262 262 262 264 261 263 262 260 261
194 205 209 224 235 243 251 252 252 269 293 301 288 266 259 258 266 273 281 312 307 254 238 263 274 280 285 285 286 286 286 294 290 275 268 268 265 260 257 255 254 251 258
191 202 212 228 243 248 257 265 268 268 268 279 296 301 281 274 281 281 247 220 265 280 271 266 264 268 278 281 283 285 281 281 281 278 276 272 269 265 266 264 261 263 257
201 216 220 231 254 266 267 270 274 276 277 279 282 283 296 318 305 297 258 241 253 266 270 271 273 272 273 279 286 289 290 289 295 298 297 293 288 277 272 274 272 271 266
199 222 238 244 248 255 258 261 263 264 269 273 274 274 265 254 277 291 289 273 261 263 266 272 283 293 294 296 302 310 311 306 303 297 294 293 292 287 279 273 271 267 267
191 210 227 245 258 262 260 260 260 262 269 273 283 293 289 278 293 299 299 299 290 279 276 279 294 305 304 305 315 320 317 312 311 309 300 293 289 288 286 281 278 274 269
200 220 241 253 258 268 274 272 273 277 279 279 278 286 296 278 279 293 303 307 313 312 312 319 323 326 324 330 331 316 306 303 301 299 299 297 293 288 284 284 284 285 282
203 221 240 257 264 265 268 273 273 274 276 283 288 274 270 274 289 300 301 304 311 323 338 357 351 345 343 341 334 333 325 318 314 305 299 293 293 291 291 289 286 284 284
216 231 243 252 257 260 263 268 273 276 279 275 248 227 257 285 309 313 313 318 336 356 10 16 3 350 344 344 344 339 330 324 320 320 313 303 297 298 299 296 296 297 296
230 236 241 250 258 262 259 257 262 258 262 269 252 222 239 276 325 326 334 350 356 3 7 356 346 353 354 348 347 343 335 330 327 323 317 307 305 306 310 304 305 305 302